#timestamp,LO_Frequency,Hit,StdDev 
1620547215.5,286047001.4,N
1620547235.4,286047001.9,N
1620547255.2,286047001.9,N
1620547275.0,286047002.8,N
1620547275.9,286047002.8,N
1620547295.8,286047000.3,N
1620547315.6,286047003.5,N
1620547335.5,286047003.8,N
1620547355.3,286047000.6,N
1620547375.1,286046999.5,N
1620547395.9,286046997.4,N
1620547415.7,286046997.8,N
1620547435.5,286046998.6,N
1620547455.4,286047000.6,N
1620547475.2,286047000.3,N
1620547495.1,286047002.2,N
1620547496.0,286047002.2,N
1620547515.8,286046999.8,N
1620547535.6,286047002.3,N
1620547555.5,286047002.8,N
1620547575.3,286047001.1,N
1620547595.2,286046996.8,N
1620547615.0,286046999.4,N
1620547615.9,286046999.4,N
1620547635.7,286047000.3,N
1620547655.6,286047000.6,N
1620547675.4,286047000.0,N
1620547695.3,286046998.7,N
1620547715.1,286046999.8,N
1620547716.0,286046999.8,N
1620547735.8,286046998.9,N
1620547755.7,286046998.9,N
1620547775.5,286046998.3,N
1620547795.4,286047000.2,N
1620547815.2,286047000.0,N
1620547835.0,286047002.7,N
1620547835.9,286047002.7,N
1620547855.8,286047000.2,N
1620547875.6,286047002.6,N
1620547895.5,286047000.1,N
1620547915.3,286047002.1,N
1620547935.1,286047002.6,N
1620547955.9,286047002.0,N
1620547975.7,286047001.3,N
1620547995.6,286047002.0,N
1620548015.4,286047002.7,N
1620548035.2,286047002.8,N
1620548055.1,286046998.1,N
1620548056.0,286046998.1,N
1620548075.8,286046999.8,N
1620548095.6,286047001.9,N
1620548115.5,286047001.1,N
1620548135.3,286046998.3,N
1620548155.2,286047000.7,N
1620548175.9,286046999.2,N
1620548195.7,286047000.7,N
1620548215.6,286046998.1,N
1620548235.4,286046999.3,N
1620548255.2,286046998.8,N
1620548275.1,286046999.0,N
1620548276.0,286046999.0,N
1620548295.8,286046999.3,N
1620548315.7,286046998.6,N
1620548335.5,286047000.5,N
1620548355.3,286047001.0,N
1620548375.2,286047002.8,N
1620548395.0,286047002.3,N
1620548395.9,286047002.3,N
1620548415.8,286047003.6,N
1620548435.6,286047003.9,N
1620548455.4,286047002.3,N
1620548475.3,286047003.8,N
1620548495.1,286047002.7,N
1620548515.9,286046996.5,N
1620548535.7,286046996.5,N
1620548555.5,286046996.5,N
1620548575.4,286047000.1,N
1620548595.2,286047000.9,N
1620548615.1,286047000.3,N
1620548616.0,286047000.3,N
1620548635.8,286047001.2,N
1620548655.6,286046997.7,N
1620548675.5,286046998.4,N
1620548695.3,286046998.4,N
1620548715.1,286046997.3,N
1620548735.9,286046999.3,N
1620548755.7,286047000.7,N
1620548775.6,286046996.6,N
1620548795.4,286046995.6,N
1620548815.2,286046993.3,N
1620548835.1,286046994.2,N
1620548836.0,286046994.2,N
1620548855.8,286046996.4,N
1620548875.7,286046997.4,N
1620548895.5,286046997.2,N
1620548915.3,286046999.2,N
1620548935.2,286046999.4,N
1620548955.0,286046999.0,N
1620548955.9,286046999.0,N
1620548975.8,286047001.5,N
1620548995.6,286047000.0,N
1620549015.4,286047000.7,N
1620549035.3,286046997.7,N
1620549055.1,286046997.3,N
1620549075.9,286046995.0,N
1620549095.7,286046997.6,N
1620549115.5,286046994.9,N
1620549135.4,286046997.9,N
1620549155.2,286046997.6,N
1620549175.0,286046996.7,N
1620549175.9,286046996.7,N
1620549195.8,286047000.8,N
1620549215.6,286046999.2,N
1620549235.5,286046998.8,N
1620549255.3,286047001.0,N
1620549275.1,286046999.5,N
1620549295.9,286046998.2,N
1620549315.7,286047000.8,N
1620549335.6,286047000.8,N
1620549355.4,286047001.1,N
1620549375.2,286046998.7,N
1620549395.1,286046998.5,N
1620549396.0,286046998.5,N
1620549415.8,286047001.2,N
1620549435.6,286047000.7,N
1620549455.5,286047002.4,N
1620549475.3,286047002.8,N
1620549495.1,286047000.2,N
1620549515.9,286046998.4,N
1620549535.7,286047001.0,N
1620549555.6,286046999.3,N
1620549575.4,286046996.7,N
1620549595.2,286046996.9,N
1620549615.1,286047002.7,N
1620549616.0,286047002.7,N
1620549635.8,286047002.0,N
1620549655.7,286047001.1,N
1620549675.5,286046998.9,N
1620549695.3,286046995.6,N
1620549715.2,286046996.8,N
1620549735.0,286046996.8,N
1620549735.9,286046996.8,N
1620549755.7,286046996.1,N
1620549775.6,286046995.6,N
1620549795.4,286046995.3,N
1620549815.3,286046997.4,N
1620549835.1,286046996.6,N
1620549836.0,286046996.6,N
1620549855.8,286046997.5,N
1620549875.7,286046995.0,N
1620549895.5,286046995.4,N
1620549915.3,286046997.6,N
1620549935.2,286046996.5,N
1620549955.0,286046994.9,N
1620549955.9,286046994.9,N
1620549975.8,286046997.3,N
1620549995.6,286046997.7,N
1620550015.4,286046995.7,N
1620550035.3,286046995.7,N
1620550055.1,286046998.9,N
1620550075.8,286046999.4,N
1620550095.7,286046998.0,N
1620550115.5,286046994.6,N
1620550135.4,286046996.1,N
1620550155.2,286046994.1,N
1620550175.0,286046991.7,Y
1620550175.9,286046991.7,P
1620550195.8,286046996.0,N
1620550215.6,286046992.1,P
1620550235.5,286046990.1,Y
1620550255.3,286046997.3,P
1620550275.1,286046997.8,N
1620550295.9,286046997.0,N
1620550315.7,286046998.1,N
1620550335.5,286047000.6,N
1620550355.4,286047002.2,N
1620550375.2,286047001.3,N
1620550395.1,286047005.3,N
1620550396.0,286047005.3,N
1620550415.8,286047004.7,N
1620550435.6,286047005.1,N
1620550455.5,286047005.8,N
1620550475.3,286047003.3,N
1620550495.1,286047004.0,N
1620550515.9,286047002.1,N
1620550535.7,286047000.2,N
1620550555.6,286047000.1,N
1620550575.4,286047002.8,N
1620550595.2,286047000.3,N
1620550615.1,286047000.4,N
1620550616.0,286047000.4,N
1620550635.8,286046998.8,N
1620550655.6,286046999.5,N
1620550675.5,286046996.8,N
1620550695.3,286046995.3,N
1620550715.2,286046993.7,N
1620550735.9,286046994.9,N
1620550755.7,286046997.4,N
1620550775.6,286046997.0,N
1620550795.4,286046998.9,N
